Regional Weather Roundup
Issued by NWS Upton, NY

Current Version | Previous Version | Text Only | Print | Product List | Glossary On
Versions: 1 2 3 4 5 6 7 8 9 10 11 12 13 14 15 16 17 18 19 20 21 22 23 24 25 26 27 28
000
ASUS41 KOKX 181605
RWROKX

REGIONAL WEATHER ROUNDUP
NATIONAL WEATHER SERVICE NEW YORK NY
1200 PM EDT FRI APR 18 2014

NOTE: "FAIR" INDICATES FEW OR NO CLOUDS BELOW 12,000 FEET WITH NO
SIGNIFICANT WEATHER AND/OR OBSTRUCTIONS TO VISIBILITY.

NYZ071-072-176-178-NJZ106-104-181700-
NEW YORK CITY METRO AREA


CITY           SKY/WX    TMP DP  RH WIND       PRES   REMARKS
CENTRAL PARK   PTSUNNY   42  28  57 VRB7      30.51F
LAGUARDIA APRT CLOUDY    40  27  59 NE9       30.50F WCI  34
KENNEDY INTL   PTSUNNY   45  26  47 CALM      30.50F
NEWARK/LIBERTY PTSUNNY   43  28  55 S5        30.49F
TETERBORO      PTSUNNY   44  28  53 E5        30.49F
$$

NYZ177-179-078>081-181700-
LONG ISLAND NEW YORK

CITY           SKY/WX    TMP DP  RH WIND       PRES   REMARKS
FARMINGDALE    PTSUNNY   43  31  62 NE6       30.48F
ISLIP          PTSUNNY   44  30  57 NE6       30.46F
SHIRLEY        CLOUDY    43  32  65 VRB3      30.48F
WESTHAMPTON    CLOUDY    42  32  67 VRB5      30.49F
MONTAUK POINT    N/A     43  31  62 NE12      30.47F
$$

NYZ052-065-067-181700-
HUDSON VALLEY

CITY           SKY/WX    TMP DP  RH WIND       PRES   REMARKS
WHITE PLAINS   PTSUNNY   40  28  62 CALM      30.46F
NEWBURGH       SUNNY     41  28  60 CALM      30.47F
MONTGOMERY     CLOUDY    43  26  51 S6        30.46F
POUGHKEEPSIE   NOT AVBL
ALBANY         CLOUDY    45  21  38 S6G16     30.45F
$$

NJZ001-105-106-008-010-013-015-019>022-104-181700-
NEW JERSEY

CITY           SKY/WX    TMP DP  RH WIND       PRES   REMARKS
NEWARK/LIBERTY PTSUNNY   43  28  55 S5        30.49F
TETERBORO      PTSUNNY   44  28  53 E5        30.49F
CALDWELL       PTSUNNY   42  27  55 E8        30.49F
MORRISTOWN     NOT AVBL
SOMERVILLE     NOT AVBL
LINDEN         FAIR      44  28  53 S5        30.51F
SUSSEX         CLOUDY    45  27  49 CALM      30.45F
ANDOVER          N/A     43  25  49 VRB5      30.45F
TRENTON        CLOUDY    44  28  53 CALM      30.48F
MILLVILLE      CLOUDY    48  35  60 NE6       30.47F
ATLANTIC CITY  CLOUDY    46  34  62 NE13      30.47F
WRIGHTSTOWN    PTSUNNY   45  31  59 NE6       30.46F
TOMS RIVER     CLOUDY    41  30  65 NE5       30.48F
BELMAR         PTSUNNY   41  27  56 SE6       30.48F
$$

PAZ047>061-062-071-181700-
EASTERN PENNSYLVANIA

CITY           SKY/WX    TMP DP  RH WIND       PRES   REMARKS
PHILADELPHIA   CLOUDY    46  30  53 NE6       30.49F
ALLENTOWN      CLOUDY    44  29  55 VRB5      30.46F
SCRANTON       CLOUDY    46  26  45 SW9G17    30.40F
$$

CTZ002-004>006-009-010-012-RIZ004-006-007-MAZ004-011-015-181700-
SOUTHERN NEW ENGLAND
 IN CT

CITY           SKY/WX    TMP DP  RH WIND       PRES   REMARKS
BRADLEY INTL   CLOUDY    43  27  53 VRB3      30.47F
HARTFORD       CLOUDY    44  28  53 VRB7      30.47F
DANBURY        CLOUDY    42  29  59 CALM      30.47F
WTRBRY/OXFORD  MOSUNNY   39  28  65 VRB6      30.48F WCI  35
BRIDGEPORT     CLOUDY    42  32  67 E12       30.49F
MERIDEN        CLOUDY    43  28  55 E8        30.47F
NEW HAVEN      CLOUDY    43  30  60 SE13G21   30.47F
CHESTER        DRIZZLE   41  28  60 E6        30.46F
GROTON         PTSUNNY   45  31  58 NE6       30.46F
WILLIMANTIC    PTSUNNY   43  27  53 NE8       30.47F

 IN RI

CITY           SKY/WX    TMP DP  RH WIND       PRES   REMARKS
PROVIDENCE     CLOUDY    44  29  55 NE7       30.49F
BLOCK ISLAND   CLOUDY    43  30  61 NE12      30.47F
WESTERLY       PTSUNNY   44  30  57 NE9       30.46F

 IN MA

CITY           SKY/WX    TMP DP  RH WIND       PRES   REMARKS
BOSTON         CLOUDY    41  30  65 E10       30.53F
WORCESTER      CLOUDY    37  27  67 E9        30.46F WCI  30
WESTFIELD      PTSUNNY   42  26  53 VRB6      30.47F
PROVINCETOWN   CLOUDY    41  30  65 MISG      30.51F
NANTUCKET      CLOUDY    44  36  73 NE14      30.47F
$$

ANZ330-335-338-340-345-350-353-355-181700-
COASTAL MARINE OBSERVATIONS


STATION/POSITION TIME  SKY/WX   TEMP    WIND        PRES    VSBY  WAVE
                                AIR SEA DIR/SP/G                  HT/PER
                 (UTC)          (F)     (DEG/KT/KT) (MB)    (MI)  (FT/S)
NY HARB ENTRANCE 1600            38 43  290/  6/ 10 1032.8
4S FIRE IS       1500               44                N/A           5/ 9
23SW MTP         1600            40 42   50/ 14/ 16 1031.2          7/10
HUDSON CANYON    1500            40 44   30/ 14/ 16 1031.6          8/10
EXECUTION ROCKS  1600            38 42   40/  8/ 12   N/A
WESTERN LI SOUND 1600            38      90/  8/ 10   N/A           1/ 4
CENTRAL LI SOUND 1500            38 42   80/ 12/ 14   N/A           1/ 3
EASTERN LI SOUND NOT AVBL
ROBBINS REEF     1600            39      20/  4/  5   N/A
$$


>>>>>>>>>>>>>>>>>>>>>>>>>>>> KEY <<<<<<<<<<<<<<<<<<<<<<<<<<<
>                                                          <
>     SKY/WX - SKY CONDITION/PRESENT WEATHER               <
>     TMP    - TEMPERATURE IN FAHRENHEIT                   <
>     DP     - DEWPOINT IN FAHRENHEIT                      <
>     RH     - RELATIVE HUMIDITY IN PERCENT                <
>     WIND   - DIRECTION AND SPEED IN MPH                  <
>     PRES   - MEAN SEA LEVEL PRESSURE IN INCHES OF HG     <
>     WCI    - WIND CHILL INDEX                            <
>     VSB    - VISIBILITY IN MILES                         <
>     HX     - HEAT INDEX                                  <
>     TC     - TEMPERATURE IN CELSIUS                      <
>     VRB    - VARIABLE WIND DIRECTION                     <
>                                                          <
>>>>>>>>>>>>>>>>>>>>>>>>>>>> KEY <<<<<<<<<<<<<<<<<<<<<<<<<<<





USA.gov is the U.S. government's official web portal to all federal, state and local government web resources and services.